When you browse on this site, cookies collect data to enhance your experience and personalize the content and advertising you see.
Visit our Privacy Policy to learn more. By continuing to use the site, you agree to this use of cookies and data.
  • en France
  • Liste des pays
  • À 7 jours
  • Température de l'eau
  • Carte satellitaire
  • Carte météo
  • Widgets météo
  • user-avatar
    Se connecter

    Météo par heure à Kandahâr

    Ce jour, 17 Novembre, Samedi

    Heure Température Précipitation Vent Pression Humidité
    00:00 +15°C° 0 mm 2 m/s 677 mmHg 31%
    01:00 +14°C° 0 mm 1 m/s 677 mmHg 32%
    02:00 +14°C° 0 mm 1 m/s 676 mmHg 33%
    03:00 +14°C° 0 mm 1 m/s 676 mmHg 34%
    04:00 +13°C° 0 mm 1 m/s 676 mmHg 34%
    05:00 +13°C° 0 mm 1 m/s 676 mmHg 34%
    06:00 +14°C° 0 mm 1 m/s 677 mmHg 34%
    07:00 +14°C° 0 mm 1 m/s 677 mmHg 33%
    08:00 +16°C° 0 mm 1 m/s 677 mmHg 30%
    09:00 +19°C° 0 mm 1 m/s 677 mmHg 27%
    10:00 +21°C° 0 mm 1 m/s 677 mmHg 24%
    11:00 +21°C° 0 mm 2 m/s 677 mmHg 24%
    12:00 +22°C° 0 mm 3 m/s 677 mmHg 23%
    13:00 +23°C° 0 mm 4 m/s 676 mmHg 23%
    14:00 +23°C° 0 mm 4 m/s 676 mmHg 24%
    15:00 +22°C° 0 mm 4 m/s 676 mmHg 25%
    16:00 +22°C° 0 mm 5 m/s 675 mmHg 26%
    17:00 +21°C° 0 mm 4 m/s 675 mmHg 28%
    18:00 +20°C° 0 mm 3 m/s 676 mmHg 31%
    19:00 +19°C° 0 mm 3 m/s 676 mmHg 34%
    20:00 +18°C° 0 mm 3 m/s 675 mmHg 36%
    21:00 +17°C° 0 mm 2 m/s 675 mmHg 37%
    22:00 +17°C° 0 mm 2 m/s 675 mmHg 39%
    23:00 +16°C° 0 mm 2 m/s 675 mmHg 40%

    Demain, 18 Novembre, Dimanche

    Heure Température Précipitation Vent Pression Humidité
    00:00 +16°C° 0 mm 2 m/s 675 mmHg 42%
    01:00 +15°C° 0 mm 2 m/s 675 mmHg 43%
    02:00 +15°C° 0 mm 2 m/s 675 mmHg 45%
    03:00 +14°C° 0 mm 2 m/s 674 mmHg 47%
    04:00 +14°C° 0 mm 1 m/s 674 mmHg 49%
    05:00 +14°C° 0 mm 1 m/s 675 mmHg 49%
    06:00 +14°C° 0 mm 1 m/s 675 mmHg 49%
    07:00 +14°C° 0 mm 1 m/s 675 mmHg 49%
    08:00 +16°C° 0 mm 1 m/s 676 mmHg 45%
    09:00 +18°C° 0 mm 2 m/s 676 mmHg 41%
    10:00 +20°C° 0 mm 2 m/s 677 mmHg 36%
    11:00 +21°C° 0 mm 3 m/s 676 mmHg 33%
    12:00 +22°C° 0 mm 4 m/s 676 mmHg 30%
    13:00 +23°C° 0 mm 5 m/s 676 mmHg 27%
    14:00 +23°C° 0 mm 5 m/s 676 mmHg 26%
    15:00 +22°C° 0 mm 5 m/s 676 mmHg 26%
    16:00 +22°C° 0 mm 4 m/s 675 mmHg 26%
    17:00 +21°C° 0 mm 4 m/s 676 mmHg 28%
    18:00 +19°C° 0 mm 3 m/s 676 mmHg 30%
    19:00 +18°C° 0 mm 3 m/s 676 mmHg 32%
    20:00 +17°C° 0 mm 2 m/s 676 mmHg 34%
    21:00 +16°C° 0 mm 2 m/s 676 mmHg 35%
    22:00 +15°C° 0 mm 2 m/s 676 mmHg 37%
    23:00 +15°C° 0 mm 2 m/s 676 mmHg 39%

    Après-demain, 19 Novembre, Lundi

    Heure Température Précipitation Vent Pression Humidité
    00:00 +14°C° 0 mm 1 m/s 676 mmHg 41%
    01:00 +13°C° 0 mm 1 m/s 676 mmHg 43%
    02:00 +12°C° 0 mm 1 m/s 675 mmHg 45%
    03:00 +12°C° 0 mm 1 m/s 675 mmHg 46%
    04:00 +10°C° 0 mm 0 m/s 675 mmHg 48%
    05:00 +11°C° 0 mm 0 m/s 676 mmHg 47%
    06:00 +11°C° 0 mm 0 m/s 676 mmHg 46%
    07:00 +11°C° 0 mm 0 m/s 677 mmHg 46%
    08:00 +14°C° 0 mm 1 m/s 677 mmHg 40%
    09:00 +16°C° 0 mm 1 m/s 678 mmHg 35%
    10:00 +19°C° 0 mm 1 m/s 679 mmHg 29%
    11:00 +20°C° 0 mm 1 m/s 679 mmHg 27%
    12:00 +21°C° 0 mm 1 m/s 678 mmHg 24%
    13:00 +21°C° 0 mm 2 m/s 678 mmHg 22%
    14:00 +21°C° 0 mm 2 m/s 678 mmHg 22%
    15:00 +21°C° 0 mm 2 m/s 678 mmHg 22%
    16:00 +20°C° 0 mm 2 m/s 678 mmHg 22%
    17:00 +19°C° 0 mm 2 m/s 678 mmHg 25%
    18:00 +18°C° 0 mm 1 m/s 678 mmHg 28%
    19:00 +16°C° 0 mm 1 m/s 678 mmHg 31%
    20:00 +14°C° 0 mm 0 m/s 678 mmHg 32%
    21:00 +14°C° 0 mm 0 m/s 678 mmHg 34%
    22:00 +13°C° 0 mm 0 m/s 678 mmHg 35%
    23:00 +13°C° 0 mm 0 m/s 678 mmHg 36%

    20 Novembre, Mardi

    Heure Température Précipitation Vent Pression Humidité
    00:00 +12°C° 0 mm 0 m/s 678 mmHg 37%
    01:00 +12°C° 0 mm 0 m/s 677 mmHg 37%
    02:00 +13°C° 0 mm 1 m/s 677 mmHg 38%
    03:00 +12°C° 0 mm 1 m/s 677 mmHg 38%
    04:00 +12°C° 0 mm 1 m/s 677 mmHg 39%
    05:00 +12°C° 0 mm 1 m/s 678 mmHg 38%
    06:00 +13°C° 0 mm 1 m/s 678 mmHg 37%
    07:00 +13°C° 0 mm 1 m/s 679 mmHg 36%
    08:00 +15°C° 0 mm 1 m/s 679 mmHg 32%
    09:00 +19°C° 0 mm 1 m/s 680 mmHg 28%
    10:00 +21°C° 0 mm 1 m/s 680 mmHg 24%
    11:00 +22°C° 0 mm 1 m/s 680 mmHg 23%
    12:00 +22°C° 0 mm 1 m/s 679 mmHg 23%
    13:00 +23°C° 0 mm 1 m/s 679 mmHg 22%
    14:00 +23°C° 0 mm 1 m/s 678 mmHg 22%
    15:00 +23°C° 0 mm 1 m/s 678 mmHg 23%
    16:00 +22°C° 0 mm 1 m/s 678 mmHg 23%
    17:00 +21°C° 0 mm 1 m/s 678 mmHg 25%
    18:00 +20°C° 0 mm 1 m/s 678 mmHg 27%
    19:00 +19°C° 0 mm 1 m/s 678 mmHg 30%
    20:00 +18°C° 0 mm 1 m/s 678 mmHg 30%
    21:00 +18°C° 0 mm 1 m/s 678 mmHg 31%
    22:00 +18°C° 0 mm 1 m/s 678 mmHg 31%
    23:00 +17°C° 0 mm 2 m/s 678 mmHg 31%

    21 Novembre, Mercredi

    Heure Température Précipitation Vent Pression Humidité
    00:00 +17°C° 0 mm 2 m/s 678 mmHg 31%
    01:00 +17°C° 0 mm 2 m/s 677 mmHg 31%
    02:00 +16°C° 0 mm 2 m/s 677 mmHg 32%
    03:00 +16°C° 0 mm 2 m/s 677 mmHg 33%
    04:00 +15°C° 0 mm 2 m/s 676 mmHg 34%
    05:00 +16°C° 0.1 mm 2 m/s 677 mmHg 37%
    06:00 +16°C° 0.1 mm 2 m/s 677 mmHg 40%
    07:00 +16°C° 0.1 mm 2 m/s 678 mmHg 43%
    08:00 +17°C° 0.3 mm 3 m/s 678 mmHg 45%
    09:00 +17°C° 0.3 mm 3 m/s 678 mmHg 46%
    10:00 +18°C° 0.3 mm 3 m/s 678 mmHg 48%
    11:00 +19°C° 0.1 mm 4 m/s 677 mmHg 46%
    12:00 +19°C° 0.1 mm 4 m/s 676 mmHg 44%
    13:00 +20°C° 0.1 mm 4 m/s 676 mmHg 42%
    14:00 +20°C° 0.2 mm 4 m/s 675 mmHg 43%
    15:00 +20°C° 0.2 mm 4 m/s 675 mmHg 44%
    16:00 +19°C° 0.2 mm 4 m/s 675 mmHg 45%
    17:00 +19°C° 0.1 mm 4 m/s 675 mmHg 47%
    18:00 +18°C° 0.1 mm 4 m/s 675 mmHg 50%
    19:00 +17°C° 0.1 mm 3 m/s 675 mmHg 53%
    20:00 +17°C° 0.2 mm 3 m/s 675 mmHg 54%
    21:00 +16°C° 0.2 mm 3 m/s 675 mmHg 55%
    22:00 +16°C° 0.2 mm 3 m/s 675 mmHg 55%
    23:00 +16°C° 0.4 mm 2 m/s 675 mmHg 57%

    22 Novembre, Jeudi

    Heure Température Précipitation Vent Pression Humidité
    00:00 +16°C° 0.4 mm 2 m/s 675 mmHg 60%
    01:00 +16°C° 0.4 mm 2 m/s 675 mmHg 62%
    02:00 +15°C° 0.5 mm 2 m/s 675 mmHg 65%
    03:00 +15°C° 0.5 mm 2 m/s 675 mmHg 68%
    04:00 +13°C° 0.5 mm 3 m/s 675 mmHg 72%
    05:00 +14°C° 0.3 mm 2 m/s 675 mmHg 72%
    06:00 +14°C° 0.3 mm 2 m/s 676 mmHg 72%
    07:00 +14°C° 0.3 mm 2 m/s 676 mmHg 73%
    08:00 +15°C° 0.1 mm 2 m/s 677 mmHg 68%
    09:00 +16°C° 0.1 mm 2 m/s 677 mmHg 64%
    10:00 +17°C° 0.1 mm 2 m/s 678 mmHg 60%
    11:00 +18°C° 0 mm 2 m/s 677 mmHg 55%
    12:00 +19°C° 0 mm 2 m/s 677 mmHg 51%
    13:00 +21°C° 0 mm 1 m/s 676 mmHg 47%
    14:00 +21°C° 0 mm 1 m/s 676 mmHg 45%
    15:00 +20°C° 0 mm 2 m/s 676 mmHg 42%
    16:00 +20°C° 0 mm 2 m/s 676 mmHg 40%
    17:00 +20°C° 0 mm 1 m/s 677 mmHg 43%
    18:00 +19°C° 0 mm 1 m/s 677 mmHg 47%
    19:00 +18°C° 0 mm 1 m/s 677 mmHg 50%
    20:00 +18°C° 0 mm 1 m/s 677 mmHg 51%
    21:00 +16°C° 0 mm 1 m/s 677 mmHg 52%
    22:00 +16°C° 0 mm 1 m/s 677 mmHg 54%
    23:00 +16°C° 0 mm 1 m/s 677 mmHg 55%
    Voir plus